Rhinelander, WI

6:46 AM CDT on April 23, 2017 (GMT -0500)
Rhinelander-Oneida County

Weather History for KRHI - June, 2013

Change the Weather History Date:

Sunday, June 23, 2013

  Actual Average Record
Temperature  
Mean Temperature 72 °F 65 °F  
Max Temperature 81 °F 77 °F 95 °F (1911)
Min Temperature 63 °F 53 °F 30 °F (1918)
Degree Days  
Heating Degree Days 0 3  
Month to date heating degree days 165 117  
Since 1 June heating degree days 165 117  
Since 1 July heating degree days 9176 9003  
Cooling Degree Days 7 2  
Month to date cooling degree days 14 32  
Year to date cooling degree days 28 44  
Since 1 June cooling degree days 14 32  
Growing Degree Days 22 (Base 50)    
Moisture  
Dew Point 63 °F    
Average Humidity 76    
Maximum Humidity 93    
Minimum Humidity 58    
Precipitation  
Precipitation 0.00 in 0.13 in 1.66 in (2010)
Month to date precipitation 3.01 2.94  
Year to date precipitation 16.34 12.62  
Snow  
Snow 0.00 in - 0.00 in ()
Month to date snowfall 0.0  
Since 1 June snowfall 0.0  
Since 1 July snowfall 83.8  
Snow Depth 0.00 in    
Sea Level Pressure  
Sea Level Pressure 29.88 in    
Wind  
Wind Speed 8 mph (SSW)    
Max Wind Speed 23 mph    
Max Gust Speed 31 mph    
Visibility 9 miles    
Events      
T = Trace of Precipitation, MM = Missing Value Source: NWS Daily Summary

Daily Weather History Graph

Daily Weather History Graph

Search for Another Location

Airport or City:

Trip Planner

Search our weather history database for the weather conditions in past years. The results will help you decide how hot, cold, wet, or windy it might be!

Date:

Astronomy

Jun. 23, 2013 Rise Set
Actual Time 5:09 AM CDT 8:51 PM CDT
Civil Twilight 4:31 AM CDT 9:29 PM CDT
Nautical Twilight 3:39 AM CDT 10:20 PM CDT
Astronomical Twilight 2:29 AM CDT 11:30 PM CDT
Moon 8:58 PM CDT 5:30 AM CDT
Length of Visible Light 16h 58m
Length of Day
15h 41m
Full, 100% of the Moon is Illuminated
Jun 23
Full
Jun 29
Last Quarter
Jul 8
New
Jul 15
First Quarter
Jul 22
Full

Hourly Weather History & Observations

Time (CDT) Temp. Heat Index Dew Point Humidity Pressure Visibility Wind Dir Wind Speed Gust Speed Precip Events Conditions
12:53 AM 64.0 °F - 63.0 °F 96% 29.94 in 5.0 mi South 3.5 mph - N/A   Overcast
1:53 AM 64.9 °F - 63.0 °F 93% 29.92 in 5.0 mi SE 4.6 mph - N/A   Overcast
2:53 AM 64.9 °F - 63.0 °F 93% 29.94 in 6.0 mi SSW 3.5 mph - N/A   Overcast
3:53 AM 64.0 °F - 62.1 °F 93% 29.91 in 9.0 mi SSW 4.6 mph - N/A   Scattered Clouds
4:53 AM 64.0 °F - 61.0 °F 90% 29.90 in 10.0 mi South 4.6 mph - N/A   Clear
5:53 AM 64.0 °F - 61.0 °F 90% 29.89 in 10.0 mi SSW 5.8 mph - N/A   Overcast
6:53 AM 64.0 °F - 61.0 °F 90% 29.88 in 10.0 mi Calm Calm - N/A   Mostly Cloudy
7:53 AM 66.9 °F - 61.0 °F 81% 29.91 in 9.0 mi WSW 4.6 mph - N/A   Partly Cloudy
8:53 AM 70.0 °F - 62.1 °F 76% 29.92 in 7.0 mi WSW 3.5 mph - N/A   Clear
9:53 AM 73.9 °F - 61.0 °F 64% 29.89 in 7.0 mi SSW 16.1 mph 21.9 mph N/A   Clear
10:53 AM 75.9 °F - 62.1 °F 62% 29.86 in 7.0 mi South 11.5 mph 19.6 mph N/A   Clear
11:53 AM 79.0 °F - 64.0 °F 60% 29.84 in 8.0 mi South 12.7 mph 25.3 mph N/A   Partly Cloudy
12:53 PM 77.0 °F - 64.9 °F 66% 29.84 in 8.0 mi South 16.1 mph 25.3 mph N/A   Mostly Cloudy
1:53 PM 78.1 °F - 66.0 °F 66% 29.83 in 9.0 mi SSW 13.8 mph 23.0 mph N/A   Mostly Cloudy
2:53 PM 79.0 °F - 66.0 °F 64% 29.83 in 10.0 mi SSW 12.7 mph 20.7 mph N/A   Mostly Cloudy
3:53 PM 79.0 °F - 64.9 °F 62% 29.83 in 10.0 mi SSW 15.0 mph 23.0 mph N/A   Partly Cloudy
4:53 PM 80.1 °F 81.7 °F 64.0 °F 58% 29.81 in 10.0 mi SW 12.7 mph 20.7 mph N/A   Partly Cloudy
5:53 PM 78.1 °F - 64.0 °F 62% 29.83 in 10.0 mi SW 11.5 mph - N/A   Scattered Clouds
6:53 PM 78.1 °F - 63.0 °F 60% 29.84 in 10.0 mi SW 10.4 mph - N/A   Partly Cloudy
7:53 PM 75.9 °F - 62.1 °F 62% 29.85 in 10.0 mi SW 8.1 mph - N/A   Clear
8:53 PM 73.0 °F - 61.0 °F 66% 29.88 in 10.0 mi SW 5.8 mph - N/A   Clear
9:53 PM 66.9 °F - 61.0 °F 81% 29.90 in 10.0 mi SW 3.5 mph - N/A   Clear
10:53 PM 64.9 °F - 61.0 °F 87% 29.91 in 10.0 mi SW 4.6 mph - N/A   Clear
11:53 PM 66.0 °F - 62.1 °F 87% 29.91 in 10.0 mi SW 5.8 mph - N/A   Clear